Regional Weather Roundup
Issued by NWS Charleston, SC

Current Version | Previous Version | Text Only | Print | Product List | Glossary Off
Versions: 1 2 3 4 5 6 7 8 9 10 11 12 13 14 15 16 17 18 19 20 21 22 23 24 25 26 27 28 29 30 31 32 33 34 35 36 37 38 39 40 41 42 43 44 45 46 47 48 49 50
789 ASUS42 KCHS 010428 RWRCHS REGIONAL WEATHER ROUNDUP NATIONAL WEATHER SERVICE CHARLESTON SC 1200 AM EDT SUN MAY 01 2016 NOTE: "FAIR" INDICATES FEW OR NO CLOUDS BELOW 12,000 FEET WITH NO SIGNIFICANT WEATHER AND/OR OBSTRUCTIONS TO VISIBILITY. NOT ALL STATIONS ARE QUALITY CONTROLLED. USE DATA WITH CAUTION... ESPECIALLY DEWPOINT OBSERVATIONS. SCZ027-030-031-034>040-042>050-010500- ...SOUTHEAST SOUTH CAROLINA... CITY SKY/WX TMP DP RH WIND PRES REMARKS N CHARLESTON PTCLDY 72 67 84 E9 30.07R WATERFRONT PRK N/A 73 70 90 E15 30.05R MOUNT PLEASANT FAIR 72 70 94 E3 30.08S JOHNS ISLAND FAIR 73 70 88 E8G16 30.08R PINOPOLIS N/A 72 68 88 SE6 30.00S MONCKS CORNER MOCLDY 66 63 88 SE3 30.08S SUMMERVILLE FAIR 72 70 94 CALM 30.09R BEAUFORT MCAS MOCLDY 74 69 85 SE6 30.06R BEAUFORT ARPT FAIR 73 66 78 SE6 30.06S HILTON HEAD IS CLOUDY 75 72 88 E6 30.07S WALTERBORO PTCLDY 72 72 100 E5 30.08R ALLENDALE CLOUDY 72 68 88 SE6 30.06R ...SOUTHERN MIDLANDS AND PEE DEE... CITY SKY/WX TMP DP RH WIND PRES REMARKS GEORGETOWN CLOUDY 68 64 88 E6G16 30.11R KINGSTREE CLOUDY 68 63 83 E9 30.09S ORANGEBURG CLOUDY 73 67 81 SE8 30.08R BARNWELL MOCLDY 73 72 94 SE6 30.07S AIKEN MOCLDY 70 64 83 SE9 30.08F MANNING NOT AVBL COLUMBIA MOCLDY 74 66 76 SE10 30.05S SUMTER CLOUDY 69 64 83 SE8 30.07R FLORENCE CLOUDY 67 62 84 SE12 30.11S MYRTLE BEACH CLOUDY 70 61 73 E10 30.13S N MYRTLE BEACH CLOUDY 68 64 87 E12 30.09F $$ GAZ063-065-086>088-099>101-113>116-118-119-134>141-150-010500- ...SOUTHEAST GEORGIA... CITY SKY/WX TMP DP RH WIND PRES REMARKS SAVANNAH ARPT MOCLDY 76 69 79 SE10 30.05R HUNTER AAF MOCLDY 75 72 88 SE9 30.03R FORT STEWART CLOUDY 73 72 94 CALM 30.03R STATESBORO CLOUDY 76 74 92 SE5 30.05S SYLVANIA CLOUDY 73 71 91 SE3 30.06S CLAXTON FAIR 74 72 94 CALM 30.05S ...CSRA...CENTRAL AND FAR SOUTHEAST GEORGIA... CITY SKY/WX TMP DP RH WIND PRES REMARKS THOMSON CLOUDY 74 69 84 CALM 30.08S AUGUSTA-BUSH CLOUDY 73 67 81 SE8 30.03S AUGUSTA-DANIEL CLOUDY 75 65 70 SE9 30.05R SWAINSBORO FAIR 73 70 88 SE9 30.04S VIDALIA CLOUDY 73 70 88 SE7 30.03S EASTMAN FAIR 71 71 100 SE5 30.03F HAZLEHURST FAIR 75 68 78 SE7 30.01S ALMA PTCLDY 71 68 90 E5 30.02F WAYCROSS MOCLDY 74 70 87 SE6 30.03R JESUP FAIR 73 72 94 CALM 30.04S BAXLEY MOCLDY 75 72 88 SE5 30.03R BRUNSWICK CLOUDY 79 73 83 SE3 30.04S SAINT SIMONS CLOUDY 75 73 93 SE6 30.04R $$ SCZ027-028-034-036>038-045-046-048>050-GAZ119-141-010500- ...LAKE AND SUPPLEMENTAL COASTAL OBSERVATIONS... STATION/POSITION TIME TEMP WIND PRES WAVE SWELL AIR SEA DIR/SP/G HT/PER HT/PER/DIR (UTC) (F) (DEG/KT/KT) (MB) (FT/S) (FT/S/D) WINYAH BAY 0345 69 90/ 13 1018.0F LAKE MURRAY 0300 75 140/ 8/ 12 1016.9R ACE BASIN NERRS 0345 73 110/ 2 1018.0R FORT PULASKI 0400 74 73 110/ 8/ 12 1017.9 SAPELO ISLAND 0400 75 130/ 5 1017.0S $$ ANZ835-935-AMZ111-154-330-350-352-354-370-450-454-472-010500- ...C-MAN AND BUOY OBSERVATIONS... STATION/POSITION TIME TEMP WIND PRES WAVE SWELL AIR SEA DIR/SP/G HT/PER HT/PER/DIR (UTC) (F) (DEG/KT/KT) (MB) (FT/S) (FT/S/D) BUOY 41004 0350 75 73 110/ 17/ 21 1017.8F 4/ 4 2/11 BUOY 41008 NOT AVBL FOLLY BEACH CMAN 0400 73 110/ 17/ 18 1018.3R CAPERS NEARSHORE 0308 72 72 100/ 14/ 19 1018.0S FRIPP NEARSHORE 0408 74 73 130/ 10/ 12 1017.6R STATION/POSITION TIME TEMP WIND PRES WAVE SWELL AIR SEA DIR/SP/G HT/PER HT/PER/DIR (UTC) (F) (DEG/KT/KT) (MB) (FT/S) (FT/S/D) 5E ST. MARYS GA 0321 74 N/A 2/ 9 FRYING PAN BUOY 0400 71 70 80/ 12/ 14 1019.1F BUOY 41025 0350 64 74 30/ 14/ 16 1021.1F 5/ 9 3/ 40/ 9 CAPE LOOKOUT NC 0400 62 60/ 11/ 13 1020.9F BUOY 41002 0350 71 80/ 16/ 17 1020.3F 5/ 8 3/ 20/ 8 BUOY 41010 0320 77 77 100/ 8/ 10 1017.8R ST AUGUSTINE FL 0400 74 74 150/ 9/ 10 1017.9R $$

USA.gov is the U.S. government's official web portal to all federal, state and local government web resources and services.